[[{"header":{"parameterUnit":"m.s-1","parameterCategory":1,"la1":30.2991,"la2":30.254,"lo1":-89.0895,"lo2":-89.0444,"dy":0.0017,"dx":0.0017,"nx":28,"ny":28,"refTime":"2025-07-31T21:00:00:Z","depth":0,"parameterNumber":2,"parameterNumberName":"U-component_of_WINDS"},"data":[0,0,0,0,0,0,0,0,0,0,0,0,0,0,0,0,0,0,0,0,0,0,0,0,0,0,0,0,0,0,0,0,0,0,0,0,0,0,0,0,0,0,0,0,0,0,0,0,0,0,0,0,0,0,0,0,0,0,1.4754,1.4756,0,1.4866,1.4867,1.4869,1.4895,1.4894,1.4893,1.4893,1.5009,1.5013,1.5016,0,0,0,0,0,0,0,0,0,0,0,0,0,1.4565,1.4569,1.4754,1.4756,1.4757,1.4866,1.4867,1.4869,1.4895,1.4894,1.4893,1.4892,1.5008,1.5012,1.5017,0,0,0,0,0,0,0,0,0,0,0,0,0,1.4659,1.457,1.4754,1.4783,1.4787,1.4866,1.4867,1.4869,1.4895,1.4894,1.4893,1.4892,1.5006,1.5012,1.5017,1.5076,0,0,1.5035,1.5037,0,0,0,0,0,0,0,0,1.4654,1.4666,1.4778,1.4781,1.4786,1.4865,1.4843,1.4939,1.4895,1.4854,1.4893,1.4891,1.4962,1.4972,1.4995,1.5081,1.5086,1.5035,1.5039,1.5041,1.5043,0,0,0,0,0,0,0,1.4647,1.4662,1.4799,1.4779,1.4784,1.4791,1.4803,1.4862,1.4913,1.4858,1.486,1.4873,1.4964,1.4989,1.4998,1.5088,1.5035,1.504,1.5044,1.5046,1.5227,1.5228,0,0,0,0,0,0,1.4636,1.4656,1.4795,1.4802,1.4716,1.4796,1.4809,1.4841,1.4913,1.4923,1.4873,1.4873,1.498,1.4991,1.5002,1.5075,1.5041,1.5047,1.505,1.5226,1.5227,1.5229,0,0,0,0,0,0,1.4631,1.4648,1.4791,1.473,1.4748,1.48,1.4836,1.4844,1.4869,1.4925,1.4934,1.489,1.498,1.4994,1.5057,1.5079,1.5049,1.5054,1.5224,1.5226,1.5228,1.522,0,0,0,0,0,0,1.4626,1.4646,1.4668,1.473,1.4751,1.4843,1.4837,1.4847,1.4878,1.4879,1.4942,1.4952,1.498,1.5048,1.5063,1.5086,1.5059,1.5222,1.5225,1.5227,1.5218,1.5221,1.5224,0,0,0,0,0,1.4619,1.4662,1.4669,1.4686,1.478,1.4844,1.4856,1.4888,1.488,1.4903,1.4939,1.495,1.5074,1.5054,1.5071,1.5097,1.5221,1.5224,1.5227,1.5217,1.5221,1.5224,0,0,0,0,0,0,1.4603,1.4671,1.4679,1.4744,1.4788,1.4848,1.4878,1.4891,1.4938,1.4937,1.4975,1.4989,1.5049,1.5079,1.5056,1.5156,1.5148,1.5154,1.5134,1.5138,1.5141,1.5132,1.5064,0,0,0,0,0,1.4606,1.4652,1.4709,1.476,1.4782,1.4826,1.4855,1.4875,1.4923,1.4942,1.4982,1.5028,1.5078,1.511,1.5159,1.5223,1.5237,1.5249,1.5252,1.5254,1.5259,1.5294,1.53,1.5239,1.5239,1.5239,0,0,1.4615,1.4657,1.4684,1.4758,1.4795,1.4841,1.4842,1.4891,1.4926,1.495,1.5011,1.5042,1.5096,1.516,1.519,1.5187,1.5279,1.5258,1.5259,1.5263,1.5298,1.5304,1.5309,1.5241,1.5241,1.524,0,0,1.4653,1.469,1.4737,1.4773,1.4828,1.4857,1.4869,1.4927,1.4949,1.5011,1.5029,1.5072,1.5157,1.5194,1.5224,1.5277,1.5289,1.5292,1.5306,1.5341,1.5346,1.535,1.5368,1.5375,1.5297,1.5297,1.5297,0,1.4657,1.4727,1.4759,1.4808,1.484,1.4862,1.4909,1.4944,1.5012,1.5034,1.5029,1.5136,1.5174,1.5246,1.5259,1.5283,1.5297,1.5285,1.5342,1.5347,1.5352,1.537,1.5376,1.5297,1.5297,1.5297,1.5297,0,1.4729,1.4777,1.4808,1.4873,1.4908,1.4956,1.4996,1.5028,1.5045,1.5075,1.5138,1.5184,1.5242,1.5261,1.5279,1.5336,1.5332,1.5335,1.5326,1.5357,1.5374,1.5382,1.5297,1.5297,1.5297,1.5297,0,0,1.476,1.4841,1.4852,1.4881,1.4944,1.4982,1.5031,1.5087,1.5114,1.5161,1.5202,1.5273,1.5276,1.531,1.5332,1.5362,1.5401,1.5361,1.5363,1.5366,1.5466,1.5463,1.5471,1.5409,1.541,1.5411,1.5461,0,1.4806,1.4893,1.4923,1.4995,1.504,1.5062,1.5105,1.5148,1.5177,1.522,1.5253,1.5302,1.5302,1.5323,1.5354,1.5389,1.5421,1.5386,1.5448,1.545,1.5433,1.548,1.5478,1.5522,1.5468,1.547,1.547,0,1.4871,1.4917,1.4994,1.505,1.507,1.5108,1.5161,1.5202,1.5252,1.5271,1.5309,1.5329,1.5381,1.537,1.5442,1.5418,1.5445,1.5466,1.5469,1.5475,1.5461,1.5487,1.5537,1.5544,1.5482,1.5481,1.548,0,1.4885,1.4967,1.5023,1.5048,1.5115,1.5141,1.517,1.5218,1.525,1.5297,1.5318,1.5371,1.54,1.5441,1.5475,1.5464,1.5544,1.5536,1.5562,1.5561,1.5577,1.5575,1.5632,1.5596,1.5595,1.5595,1.5595,0,1.4933,1.4978,1.503,1.5065,1.5117,1.5151,1.5202,1.5233,1.5275,1.5316,1.5339,1.5377,1.542,1.5464,1.5491,1.5546,1.5559,1.5576,1.5583,1.5574,1.5572,1.5592,1.5589,1.5597,1.5597,1.5596,1.5596,0,1.4957,1.4994,1.5056,1.5115,1.513,1.5166,1.5216,1.5251,1.5281,1.5332,1.5347,1.5394,1.5447,1.5484,1.5553,1.5571,1.563,1.5637,1.5613,1.5616,1.5639,1.5636,1.571,1.5721,1.5678,1.5678,1.5679,0,1.4985,1.502,1.5082,1.5111,1.514,1.5186,1.5219,1.5254,1.5287,1.5346,1.5373,1.5427,1.5472,1.5556,1.5597,1.5649,1.5657,1.5679,1.5665,1.5654,1.5656,1.5653,1.5657,1.5681,1.5681,1.5681,1.5682,0,1.503,1.5046,1.5091,1.5143,1.5181,1.5223,1.5266,1.5289,1.5332,1.5368,1.5421,1.5456,1.5526,1.5579,1.5635,1.5666,1.5681,1.5686,1.5694,1.5685,1.567,1.5678,1.5618,1.5684,1.5684,1.5683,1.5683,1.5683,1.5057,1.5089,1.5137,1.5187,1.5223,1.5262,1.5297,1.5332,1.5377,1.5435,1.5454,1.5509,1.5558,1.5635,1.5666,1.5711,1.571,1.5722,1.5725,1.5728,1.5727,1.5663,1.5721,1.5721,1.5721,1.5721,1.5721,0,1.5102,1.5134,1.518,1.5239,1.5278,1.5288,1.5336,1.5368,1.5416,1.546,1.5504,1.5566,1.5617,1.5662,1.5716,1.5743,1.5751,1.5756,1.5754,1.5761,1.5725,1.5712,1.5748,1.5748,1.5748,1.5748,1.5748,1.5748,1.513,1.5186,1.5207,1.5281,1.5313,1.5367,1.5393,1.543,1.5465,1.5533,1.5576,1.5604,1.5648,1.5706,1.5754,1.5766,1.5784,1.5787,1.58,1.5766,1.5763,1.576,1.5748,1.5791,1.5791,1.5832,1.5832,1.5833]},{"header":{"parameterUnit":"m.s-1","parameterCategory":1,"la1":30.2991,"la2":30.254,"lo1":-89.0895,"lo2":-89.0444,"dy":0.0017,"dx":0.0017,"nx":28,"ny":28,"refTime":"2025-07-31T21:00:00:Z","depth":0,"parameterNumber":3,"parameterNumberName":"V-component_of_WINDS"},"data":[0,0,0,0,0,0,0,0,0,0,0,0,0,0,0,0,0,0,0,0,0,0,0,0,0,0,0,0,0,0,0,0,0,0,0,0,0,0,0,0,0,0,0,0,0,0,0,0,0,0,0,0,0,0,0,0,0,0,4.8353,4.8353,0,4.8386,4.8386,4.8386,4.8353,4.8352,4.835,4.8349,4.8378,4.838,4.8382,0,0,0,0,0,0,0,0,0,0,0,0,0,4.8256,4.8258,4.8353,4.8353,4.8354,4.8386,4.8386,4.8387,4.8353,4.8352,4.835,4.8349,4.8377,4.838,4.8382,0,0,0,0,0,0,0,0,0,0,0,0,0,4.8294,4.8259,4.8353,4.8341,4.834,4.8386,4.8386,4.8387,4.8354,4.8352,4.835,4.8348,4.8377,4.8379,4.8382,4.8439,0,0,4.8391,4.8393,0,0,0,0,0,0,0,0,4.8292,4.8298,4.8342,4.8342,4.8341,4.8363,4.8363,4.8404,4.8354,4.8348,4.8349,4.8347,4.8374,4.8377,4.8388,4.8441,4.8442,4.8392,4.8394,4.8395,4.8396,0,0,0,0,0,0,0,4.829,4.8296,4.8366,4.8343,4.8342,4.8332,4.8336,4.837,4.8372,4.8349,4.8346,4.8351,4.8374,4.8385,4.8388,4.8442,4.8392,4.8394,4.8396,4.8397,4.8544,4.8546,0,0,0,0,0,0,4.8289,4.8294,4.8364,4.8367,4.8312,4.8336,4.8339,4.8358,4.8371,4.8371,4.8353,4.8349,4.8381,4.8385,4.8389,4.8457,4.8395,4.8398,4.8399,4.8542,4.8544,4.8547,0,0,0,0,0,0,4.8287,4.8296,4.8363,4.833,4.8338,4.834,4.8361,4.836,4.8371,4.8374,4.8374,4.8364,4.8379,4.8385,4.8428,4.8457,4.8399,4.8402,4.8539,4.8543,4.8546,4.8593,0,0,0,0,0,0,4.8285,4.8295,4.8318,4.8331,4.834,4.8403,4.8363,4.8362,4.8377,4.8373,4.8385,4.8385,4.8378,4.8423,4.843,4.846,4.8404,4.8537,4.8541,4.8545,4.8588,4.8597,4.8604,0,0,0,0,0,4.8281,4.8329,4.8319,4.8328,4.8368,4.8404,4.8409,4.8402,4.8379,4.8401,4.8404,4.8385,4.8453,4.8428,4.8436,4.8467,4.8535,4.854,4.8544,4.8585,4.8595,4.8604,0,0,0,0,0,0,4.8317,4.833,4.832,4.8373,4.8388,4.8399,4.8426,4.8413,4.8434,4.8429,4.8417,4.842,4.8466,4.847,4.8442,4.8523,4.849,4.8497,4.8518,4.8528,4.8536,4.8533,4.8406,0,0,0,0,0,4.8331,4.8361,4.837,4.8416,4.8425,4.8425,4.844,4.8433,4.8447,4.8453,4.8458,4.8472,4.8496,4.8512,4.8535,4.8589,4.8591,4.8614,4.8622,4.8629,4.8634,4.8663,4.8674,4.8562,4.8562,4.8562,0,0,4.836,4.8371,4.8391,4.8424,4.8435,4.8464,4.843,4.8462,4.8484,4.8457,4.8499,4.8503,4.8517,4.8566,4.8588,4.8571,4.8666,4.8635,4.864,4.8642,4.8669,4.868,4.8689,4.8566,4.8565,4.8565,0,0,4.8429,4.8441,4.8481,4.8493,4.8511,4.8511,4.852,4.8533,4.8536,4.8577,4.8558,4.8583,4.8625,4.8636,4.8647,4.8722,4.8705,4.8729,4.8771,4.8799,4.8808,4.8815,4.8842,4.8851,4.8735,4.8735,4.8735,0,4.8463,4.8509,4.8502,4.8537,4.8552,4.8532,4.8571,4.8583,4.8606,4.8616,4.8598,4.8652,4.866,4.8711,4.8729,4.8739,4.8749,4.8728,4.8807,4.8815,4.8822,4.8847,4.8857,4.8738,4.8738,4.8737,4.8737,0,4.8549,4.8581,4.8611,4.8637,4.8655,4.8692,4.869,4.8709,4.8701,4.8702,4.8744,4.8754,4.8778,4.879,4.8781,4.884,4.8829,4.8809,4.8776,4.8836,4.8859,4.8868,4.8742,4.8741,4.874,4.874,0,0,4.864,4.8663,4.8674,4.8686,4.8704,4.8728,4.8764,4.879,4.8806,4.8823,4.8852,4.8889,4.8871,4.8884,4.8877,4.8902,4.896,4.8879,4.8879,4.8893,4.9024,4.9039,4.905,4.8949,4.8951,4.8952,4.9023,0,4.8709,4.8773,4.8769,4.8829,4.8858,4.8839,4.887,4.8884,4.8887,4.8911,4.8912,4.8939,4.8914,4.8922,4.8946,4.8948,4.8986,4.8943,4.8975,4.8976,4.8971,4.9062,4.9077,4.9143,4.9032,4.9033,4.9035,0,4.8798,4.882,4.8884,4.8899,4.8911,4.8939,4.8963,4.8986,4.9002,4.9001,4.9017,4.9006,4.904,4.9007,4.9054,4.9025,4.9038,4.9041,4.9044,4.9046,4.9008,4.9066,4.9164,4.9174,4.9049,4.9048,4.9047,0,4.8857,4.8903,4.8947,4.8958,4.8977,4.8997,4.9005,4.9019,4.9035,4.9055,4.9065,4.9088,4.9101,4.9119,4.9114,4.909,4.9162,4.9128,4.9162,4.9162,4.9177,4.9176,4.9278,4.9186,4.9186,4.9186,4.9186,0,4.8934,4.8974,4.8975,4.9002,4.9045,4.9039,4.9082,4.9087,4.91,4.9127,4.9112,4.9137,4.9129,4.9153,4.9149,4.9189,4.9195,4.9195,4.9193,4.9196,4.9196,4.9203,4.9198,4.9189,4.9188,4.9188,4.9187,0,4.9008,4.901,4.9057,4.9072,4.9076,4.9108,4.9119,4.9144,4.9146,4.918,4.9188,4.919,4.9218,4.9215,4.9246,4.9243,4.9292,4.9285,4.9288,4.9286,4.9319,4.9316,4.9429,4.9444,4.9343,4.9344,4.9345,0,4.9057,4.9087,4.9106,4.9124,4.9134,4.9163,4.918,4.9176,4.9193,4.9214,4.9236,4.9263,4.9284,4.933,4.9333,4.9356,4.935,4.9388,4.9353,4.9355,4.935,4.9348,4.935,4.9394,4.9395,4.9396,4.9397,0,4.9143,4.9143,4.9169,4.9196,4.9217,4.9237,4.9256,4.9271,4.9268,4.9289,4.9318,4.9335,4.9368,4.9394,4.9417,4.9424,4.941,4.9408,4.9417,4.942,4.942,4.942,4.9306,4.9405,4.9405,4.9404,4.9403,4.9403,4.9205,4.9231,4.9249,4.9279,4.9293,4.9311,4.9335,4.9341,4.9366,4.9394,4.9389,4.9422,4.9437,4.9466,4.9475,4.95,4.9486,4.9499,4.9502,4.9505,4.9509,4.9417,4.9504,4.9504,4.9504,4.9503,4.9503,0,4.929,4.9302,4.9329,4.9357,4.938,4.9367,4.9387,4.9406,4.9437,4.9452,4.9474,4.9508,4.9534,4.9541,4.9565,4.9584,4.9578,4.959,4.9588,4.959,4.952,4.951,4.9595,4.9595,4.9595,4.9595,4.9595,4.9595,4.9337,4.9381,4.9384,4.9434,4.9444,4.9478,4.9491,4.9507,4.952,4.9559,4.9581,4.9586,4.9598,4.9623,4.9646,4.9647,4.9657,4.9672,4.967,4.9604,4.9595,4.9586,4.9577,4.9674,4.9674,4.9738,4.9738,4.9739]}]]